London Gatwick, United Kingdom

8:23 PM GMT on February 10, 2016 (GMT +0000)
Gatwick

Weather History for EGKK - October, 2012

Change the Weather History Date:

Wednesday, October 3, 2012

  Actual Average Record
Temperature  
Mean Temperature 54 °F -  
Max Temperature 59 °F 58 °F 75 °F (2011)
Min Temperature 50 °F 43 °F 37 °F (2015)
Degree Days  
Heating Degree Days 10    
Growing Degree Days 4 (Base 50)    
Moisture  
Dew Point 48 °F    
Average Humidity 80    
Maximum Humidity 94    
Minimum Humidity 63    
Precipitation  
Precipitation 0.00 in 0.10 in - ()
Sea Level Pressure  
Sea Level Pressure 29.71 in    
Wind  
Wind Speed 8 mph ()    
Max Wind Speed 14 mph    
Max Gust Speed 24 mph    
Visibility 6.1 miles    
Events Rain    
Averages and records for this station are not official NWS values.
T = Trace of Precipitation, MM = Missing Value Source: Averaged Metar Reports

Daily Weather History Graph

Daily Weather History Graph

Search for Another Location

Airport or City:

Trip Planner

Search our weather history database for the weather conditions in past years. The results will help you decide how hot, cold, wet, or windy it might be!

Date:

Astronomy

Oct. 03, 2012 Rise Set
Actual Time 7:04 AM BST 6:33 PM BST
Civil Twilight 6:31 AM BST 7:06 PM BST
Nautical Twilight 5:53 AM BST 7:44 PM BST
Astronomical Twilight 5:14 AM BST 8:23 PM BST
Moon 7:47 PM BST (10/3) 10:40 AM BST (10/3)
Length of Visible Light 12h 34m
Length of Day
11h 28m
Waning Gibbous, 90% of the Moon is Illuminated
Oct 3
Waning Gibbous
Oct 8
Last Quarter
Oct 15
New
Oct 22
First Quarter
Oct 29
Full

Hourly Weather History & Observations

Time (BST) Temp. Dew Point Humidity Pressure Visibility Wind Dir Wind Speed Gust Speed Precip Events Conditions
12:20 AM 57.2 °F 53.6 °F 88% 29.71 in 6.2 mi SSW 13.8 mph - N/A   Mostly Cloudy
1:50 AM 55.4 °F 51.8 °F 88% 29.71 in 2.8 mi WSW 13.8 mph - N/A Rain Rain
2:20 AM 53.6 °F 51.8 °F 94% 29.71 in 6.2 mi WSW 12.7 mph - N/A Rain Light Rain
2:50 AM 55.4 °F 51.8 °F 88% 29.71 in 6.2 mi WSW 12.7 mph - N/A Rain Light Rain
3:20 AM 55.4 °F 51.8 °F 88% 29.68 in 6.2 mi SW 8.1 mph - N/A   Partly Cloudy
3:50 AM 55.4 °F 51.8 °F 88% 29.68 in - SSW 8.1 mph - N/A   Clear
4:20 AM 55.4 °F 51.8 °F 88% 29.68 in 5.6 mi WSW 9.2 mph - N/A Rain Light Rain
4:50 AM 53.6 °F 50.0 °F 88% 29.68 in 6.2 mi SW 8.1 mph - N/A Rain Light Rain
5:20 AM 51.8 °F 48.2 °F 88% 29.68 in 6.2 mi SW 6.9 mph - N/A   Partly Cloudy
5:50 AM 51.8 °F 48.2 °F 88% 29.68 in - SSW 4.6 mph - N/A   Clear
6:20 AM 51.8 °F 48.2 °F 88% 29.68 in 6.2 mi SW 4.6 mph - N/A   Scattered Clouds
6:50 AM 51.8 °F 48.2 °F 88% 29.68 in 6.2 mi SW 5.8 mph - N/A   Scattered Clouds
7:20 AM 51.8 °F 48.2 °F 88% 29.71 in 6.2 mi SW 5.8 mph - N/A   Partly Cloudy
7:50 AM 51.8 °F 48.2 °F 88% 29.71 in 6.2 mi SW 5.8 mph - N/A   Partly Cloudy
8:20 AM 51.8 °F 48.2 °F 88% 29.71 in 6.2 mi SW 4.6 mph - N/A   Partly Cloudy
8:50 AM 51.8 °F 48.2 °F 88% 29.71 in - SW 5.8 mph - N/A   Clear
9:20 AM 53.6 °F 50.0 °F 88% 29.74 in - SW 5.8 mph - N/A   Clear
9:50 AM 53.6 °F 50.0 °F 88% 29.74 in 6.2 mi SW 6.9 mph - N/A   Partly Cloudy
10:20 AM 55.4 °F 50.0 °F 82% 29.74 in 6.2 mi SW 6.9 mph - N/A   Scattered Clouds
10:50 AM 57.2 °F 50.0 °F 77% 29.74 in 6.2 mi SW 10.4 mph - N/A   Scattered Clouds
11:20 AM 57.2 °F 48.2 °F 72% 29.74 in 6.2 mi WSW 12.7 mph - N/A   Scattered Clouds
11:50 AM 57.2 °F 48.2 °F 72% 29.74 in 6.2 mi SW 10.4 mph - N/A   Scattered Clouds
12:20 PM 59.0 °F 46.4 °F 63% 29.71 in 6.2 mi SW 12.7 mph - N/A   Scattered Clouds
12:50 PM 57.2 °F 46.4 °F 67% 29.74 in 6.2 mi SW 10.4 mph - N/A   Scattered Clouds
1:20 PM 57.2 °F 46.4 °F 67% 29.74 in 6.2 mi WSW 12.7 mph - N/A   Scattered Clouds
1:50 PM 57.2 °F 44.6 °F 63% 29.74 in 6.2 mi SW 12.7 mph - N/A   Scattered Clouds
2:20 PM 57.2 °F 44.6 °F 63% 29.71 in 6.2 mi SW 10.4 mph - N/A   Partly Cloudy
2:50 PM 57.2 °F 46.4 °F 67% 29.71 in 6.2 mi SW 9.2 mph - N/A   Partly Cloudy
3:20 PM 57.2 °F 46.4 °F 67% 29.71 in 6.2 mi SW 12.7 mph 24.2 mph N/A   Scattered Clouds
3:50 PM 55.4 °F 44.6 °F 67% 29.71 in 6.2 mi SW 12.7 mph - N/A   Partly Cloudy
4:20 PM 55.4 °F 46.4 °F 72% 29.71 in 6.2 mi SW 11.5 mph - N/A   Partly Cloudy
4:50 PM 55.4 °F 46.4 °F 72% 29.71 in 6.2 mi SW 9.2 mph - N/A   Partly Cloudy
5:20 PM 55.4 °F 46.4 °F 72% 29.71 in - SSW 8.1 mph - N/A   Clear
5:50 PM 55.4 °F 48.2 °F 77% 29.71 in 6.2 mi SSW 9.2 mph - N/A   Partly Cloudy
6:20 PM 55.4 °F 48.2 °F 77% 29.71 in 6.2 mi SW 8.1 mph - N/A   Mostly Cloudy
6:50 PM 53.6 °F 48.2 °F 82% 29.68 in 6.2 mi SW 8.1 mph - N/A   Scattered Clouds
7:20 PM 53.6 °F 48.2 °F 82% 29.71 in 6.2 mi SSW 6.9 mph - N/A   Scattered Clouds
7:50 PM 53.6 °F 48.2 °F 82% 29.71 in 5.6 mi SW 5.8 mph - N/A Rain Light Rain Showers
8:20 PM 53.6 °F 48.2 °F 82% 29.71 in 6.2 mi SW 6.9 mph - N/A Rain Rain
8:50 PM 51.8 °F 48.2 °F 88% 29.71 in 6.2 mi West 10.4 mph - N/A   Mostly Cloudy
9:20 PM 51.8 °F 44.6 °F 76% 29.74 in 6.2 mi WSW 6.9 mph - N/A   Scattered Clouds
9:50 PM 50.0 °F 44.6 °F 82% 29.71 in 6.2 mi SW 5.8 mph - N/A   Scattered Clouds
10:20 PM 50.0 °F 44.6 °F 82% 29.71 in 6.2 mi SW 5.8 mph - N/A   Partly Cloudy
10:50 PM 50.0 °F 44.6 °F 82% 29.71 in - SW 3.5 mph - N/A   Clear
11:20 PM 50.0 °F 44.6 °F 82% 29.71 in - Variable 2.3 mph - N/A   Clear
11:50 PM 50.0 °F 44.6 °F 82% 29.68 in - Calm Calm - N/A   Clear